Texarkana, AR

10:04 AM CDT on August 17, 2017 (GMT -0500)
Texarkana Regional-Webb

Weather History for KTXK - May, 2014

Change the Weather History Date:

Monday, May 12, 2014

  Actual Average Record
Temperature  
Mean Temperature 77 °F 71 °F  
Max Temperature 88 °F 81 °F 93 °F (1921)
Min Temperature 65 °F 60 °F 43 °F (1960)
Degree Days  
Heating Degree Days 0 1  
Month to date heating degree days 13 12  
Since 1 July heating degree days 3019 2615  
Cooling Degree Days 12 6  
Month to date cooling degree days 81 61  
Year to date cooling degree days 159 158  
Growing Degree Days 26 (Base 50)    
Moisture  
Dew Point 68 °F    
Average Humidity 74    
Maximum Humidity 93    
Minimum Humidity 55    
Precipitation  
Precipitation 0.60 in 0.17 in 1.49 in (1954)
Month to date precipitation 2.35 2.12  
Year to date precipitation 12.70 17.65  
Snow  
Snow 0.00 in - - ()
Month to date snowfall 0.0  
Since 1 July snowfall 1.7  
Snow Depth 0.00 in    
Sea Level Pressure  
Sea Level Pressure 29.93 in    
Wind  
Wind Speed 12 mph (SE)    
Max Wind Speed 31 mph    
Max Gust Speed 39 mph    
Visibility 8 miles    
Events Rain , Thunderstorm    
T = Trace of Precipitation, MM = Missing Value Source: NWS Daily Summary

Daily Weather History Graph

Daily Weather History Graph

Search for Another Location

Airport or City:

Trip Planner

Search our weather history database for the weather conditions in past years. The results will help you decide how hot, cold, wet, or windy it might be!

Date:

Astronomy

May. 12, 2014 Rise Set
Actual Time 6:17 AM CDT 8:07 PM CDT
Civil Twilight 5:50 AM CDT 8:34 PM CDT
Nautical Twilight 5:17 AM CDT 9:07 PM CDT
Astronomical Twilight 4:42 AM CDT 9:42 PM CDT
Moon 6:11 PM CDT (5/12) 4:49 AM CDT (5/12)
Length of Visible Light 14h 43m
Length of Day
13h 49m
Waxing Gibbous, 95% of the Moon is Illuminated
May 12
Waxing Gibbous
May 14
Full
May 21
Last Quarter
May 28
New
Jun 5
First Quarter

Hourly Weather History & Observations

Time (CDT) Temp. Heat Index Dew Point Humidity Pressure Visibility Wind Dir Wind Speed Gust Speed Precip Events Conditions
12:53 AM 73.0 °F - 69.1 °F 87% 29.83 in 10.0 mi SE 11.5 mph 19.6 mph N/A   Mostly Cloudy
1:38 AM 73.4 °F - 69.8 °F 88% 29.84 in 10.0 mi SE 11.5 mph - N/A   Mostly Cloudy
1:53 AM 73.0 °F - 69.1 °F 87% 29.83 in 10.0 mi SE 10.4 mph - N/A   Overcast
2:53 AM 73.9 °F - 70.0 °F 87% 29.84 in 10.0 mi SE 10.4 mph - N/A   Overcast
3:53 AM 73.9 °F - 70.0 °F 87% 29.84 in 10.0 mi SE 10.4 mph - N/A   Overcast
4:30 AM 73.4 °F - 69.8 °F 88% 29.88 in 9.0 mi SE 6.9 mph - N/A   Overcast
4:53 AM 73.0 °F - 70.0 °F 90% 29.86 in 9.0 mi SE 8.1 mph - 0.00 in Rain Light Rain
5:53 AM 72.0 °F - 70.0 °F 93% 29.88 in 9.0 mi SE 8.1 mph - 0.00 in   Overcast
6:34 AM 73.4 °F - 69.8 °F 88% 29.90 in 8.0 mi SE 8.1 mph - N/A   Mostly Cloudy
6:53 AM 73.0 °F - 70.0 °F 90% 29.90 in 8.0 mi SE 8.1 mph - N/A   Overcast
7:01 AM 73.4 °F - 69.8 °F 88% 29.91 in 8.0 mi SE 8.1 mph - N/A   Overcast
7:45 AM 73.4 °F - 71.6 °F 94% 29.92 in 9.0 mi SSE 11.5 mph 19.6 mph N/A   Overcast
7:53 AM 73.9 °F - 71.1 °F 91% 29.91 in 9.0 mi SSE 10.4 mph 19.6 mph N/A   Overcast
8:14 AM 75.2 °F - 71.6 °F 89% 29.93 in 10.0 mi SSE 11.5 mph 24.2 mph N/A   Overcast
8:34 AM 75.2 °F - 71.6 °F 89% 29.94 in 10.0 mi SSE 11.5 mph - N/A   Overcast
9:53 AM 77.0 °F - 71.1 °F 82% 29.96 in 10.0 mi South 10.4 mph 17.3 mph N/A   Overcast
10:42 AM 80.6 °F 84.6 °F 71.6 °F 74% 29.95 in 10.0 mi SSE 12.7 mph - 0.00 in   Mostly Cloudy
10:53 AM 81.0 °F 84.9 °F 71.1 °F 72% 29.95 in 10.0 mi South 15.0 mph 25.3 mph 0.00 in   Scattered Clouds
11:31 AM 80.6 °F 83.9 °F 69.8 °F 70% 29.97 in 10.0 mi South 12.7 mph 23.0 mph N/A   Overcast
11:45 AM 80.6 °F 83.9 °F 69.8 °F 70% 29.97 in 10.0 mi South 13.8 mph 25.3 mph N/A   Mostly Cloudy
11:53 AM 82.0 °F 85.9 °F 70.0 °F 67% 29.96 in 10.0 mi South 12.7 mph 25.3 mph N/A   Mostly Cloudy
12:53 PM 82.0 °F 85.9 °F 70.0 °F 67% 29.94 in 10.0 mi South 15.0 mph 20.7 mph N/A   Mostly Cloudy
1:53 PM 84.9 °F 88.8 °F 69.1 °F 59% 29.90 in 10.0 mi South 17.3 mph 24.2 mph N/A   Scattered Clouds
2:53 PM 87.1 °F 91.3 °F 69.1 °F 55% 29.86 in 10.0 mi South 17.3 mph 27.6 mph N/A   Partly Cloudy
3:53 PM 87.1 °F 91.3 °F 69.1 °F 55% 29.82 in 10.0 mi South 16.1 mph 26.5 mph N/A   Scattered Clouds
4:53 PM 84.9 °F 88.8 °F 69.1 °F 59% 29.83 in 10.0 mi South 17.3 mph 26.5 mph N/A   Mostly Cloudy
6:53 PM 79.0 °F - 68.0 °F 69% 29.82 in 10.0 mi SSE 20.7 mph 33.4 mph 0.02 in   Mostly Cloudy
7:53 PM 78.1 °F - 70.0 °F 76% 29.83 in 10.0 mi SSE 13.8 mph 20.7 mph N/A   Partly Cloudy
8:53 PM 70.0 °F - 64.9 °F 84% 29.94 in 6.0 mi NW 20.7 mph 35.7 mph 0.04 in Rain Rain
9:00 PM 68.0 °F - 62.6 °F 83% 29.96 in 10.0 mi NW 31.1 mph 39.1 mph 0.00 in   Overcast
9:09 PM 66.2 °F - 64.4 °F 94% 30.00 in 4.0 mi NW 20.7 mph 38.0 mph 0.03 in Rain Light Rain
9:17 PM 64.4 °F - 62.6 °F 94% 30.00 in 1.8 mi NNW 16.1 mph 26.5 mph 0.13 in Rain Heavy Rain
9:53 PM 64.9 °F - 64.0 °F 97% 29.99 in 10.0 mi NNE 10.4 mph - 0.20 in Rain , Thunderstorm Light Rain
10:02 PM 64.4 °F - 64.4 °F 100% 30.01 in 8.0 mi NE 6.9 mph - 0.01 in Rain , Thunderstorm Light Rain
10:10 PM 64.4 °F - 64.4 °F 100% 30.00 in 7.0 mi NE 9.2 mph - 0.03 in Rain Rain
10:18 PM 64.4 °F - 64.4 °F 100% 30.00 in 6.0 mi NNE 12.7 mph - 0.05 in Rain , Thunderstorm Rain
10:45 PM 64.4 °F - 64.4 °F 100% 30.01 in 5.0 mi ENE 4.6 mph - 0.10 in Rain Rain
10:53 PM 64.9 °F - 64.0 °F 97% 30.00 in 6.0 mi ESE 4.6 mph - 0.12 in Rain Rain
11:00 PM 64.4 °F - 64.4 °F 100% 30.02 in 6.0 mi East 5.8 mph - 0.01 in Rain , Thunderstorm Thunderstorms and Rain
11:29 PM 64.4 °F - 64.4 °F 100% 30.02 in 5.0 mi Calm Calm - 0.07 in Rain Rain
11:41 PM 66.2 °F - 64.4 °F 94% 30.01 in 5.0 mi North 4.6 mph - 0.10 in Rain , Thunderstorm Thunderstorms and Rain
11:53 PM 66.0 °F - 64.0 °F 93% 30.00 in 5.0 mi Calm Calm - 0.12 in Rain Rain